Notices

What's New in latest Release from April 7th, 2021:

- Updated Glossary, including Speed of Maximum Gust, and Total Hourly Precipitation

- Updated national and regional climate services offices contacts and prices information

- Addition of station inventory lists for 1981-2010, 1971-2000, and 1961-1990 Normals.

If you haven't already, please take our survey and provide feedback about our website: https://eccc.sondage-survey.ca/f/LanguageSelection.aspx?s=442ca660-fcf1-47c0-95a9-59707d6fd709

Hourly Data Report for May 04, 2021

MIRAMICHI RCS
NEW BRUNSWICK
Current Station Operator: ECCC - MSC

47°00'34.000" N
65°27'54.000" W
33.00 m
8100989
71744
ACQ

Download Data

Hourly Data (May 2021)
Hourly Data Report for May 4, 2021
TIME
LST
Temp Definition
°C
Dew Point Definition
°C
Rel Hum Definition
%
Precip. Amount Definition
mm

Wind Dir Definition
10's deg

Wind Spd Definition
km/h
Visibility Definition
km
Stn Press Definition
kPa
Hmdx Definition


Wind Chill Definition


Weather Definition


00:00 4.5 -6.2 46 LegendMM 26 9   100.61     LegendNANA
01:00 3.8 -5.9 49 LegendMM 27 8   100.69     LegendNANA
02:00 2.1 -4.8 60 LegendMM 29 5   100.71     LegendNANA
03:00 1.8 -5.0 61 LegendMM 29 8   100.72     LegendNANA
04:00 0.2 -4.7 70 LegendMM 27 4   100.75     LegendNANA
05:00 1.0 -5.0 64 LegendMM 25 7   100.78     LegendNANA
06:00 2.0 -3.7 66 LegendMM 26 7   100.83     LegendNANA
07:00 5.5 -4.0 51 LegendMM 30 9   100.85     LegendNANA
08:00 8.1 -3.6 44 LegendMM 29 10   100.88     LegendNANA
09:00 10.1 -3.3 39 LegendMM 32 8   100.84     LegendNANA
10:00 11.0 -2.8 38 LegendMM 33 8   100.82     LegendNANA
11:00 12.7 -2.2 36 LegendMM 19 6   100.76     LegendNANA
12:00 13.9 -2.8 31 LegendMM 27 11   100.72     LegendNANA
13:00 16.1 -1.3 30 LegendMM 14 6   100.71     LegendNANA
14:00 16.0 -2.6 28 LegendMM 1 7   100.65     LegendNANA
15:00 17.1 -2.9 25 LegendMM 12 6   100.61     LegendNANA
16:00 18.2 -1.2 27 LegendMM 26 8   100.60     LegendNANA
17:00 15.6 0.6 36 LegendMM 11 21   100.64     LegendNANA
18:00 13.3 -0.6 38 LegendMM 10 20   100.69     LegendNANA
19:00 11.5 -1.7 40 LegendMM 9 17   100.73     LegendNANA
20:00 9.7 -0.9 48 LegendMM 10 9   100.74     LegendNANA
21:00 8.4 0.0 55 LegendMM 5 10   100.75     LegendNANA
22:00 7.1 0.4 62 LegendMM 6 13   100.77     LegendNANA
23:00 5.9 -0.1 65 LegendMM 6 7   100.85     LegendNANA

Notes on Data Quality.

Legend

  • E = Estimated
  • M = Missing
  • NA = Not Available*
  • [empty] = Indicates an unobserved value
Date modified: